Location: Newark
(23.1300°N, 73.6109°E)
Time: 12:33:24
(UTC+00:00)

LightSail 2 - Visible Passes

Search period start: 06 April 2020 00:00
Search period end: 16 April 2020 00:00
Orbit: 694 x 724 km, 24.0° (Epoch: 05 April)

Date Brightness Start Highest point End Pass type
(mag) Time Alt. Az. Time Alt. Az. Time Alt. Az.
06 Apr 5.5 22:54:11 55° SE 22:54:11 55° SE 22:58:35 10° E visible
07 Apr 7.8 21:58:30 14° E 21:58:30 14° E 21:59:14 10° E visible
07 Apr 5.0 23:37:22 32° W 23:39:45 90° SSE 23:44:48 10° E visible
08 Apr 5.7 22:41:40 52° E 22:41:40 52° E 22:45:31 10° E visible
09 Apr 5.2 00:20:54 10° W 00:25:57 80° N 00:31:00 10° E visible
09 Apr 8.0 21:45:56 11° E 21:45:56 11° E 21:46:12 10° E visible
09 Apr 5.0 23:24:49 40° W 23:26:38 81° N 23:31:41 10° E visible
10 Apr 6.2 22:29:06 41° E 22:29:06 41° E 22:32:22 10° E visible
11 Apr 5.1 00:07:59 11° W 00:12:49 85° N 00:17:53 10° E visible
11 Apr 5.0 23:12:16 52° WNW 23:13:29 81° N 23:18:32 10° E visible
12 Apr 6.7 22:16:35 31° E 22:16:35 31° E 22:19:12 10° E visible
12 Apr 5.1 23:55:28 15° W 23:59:39 81° S 00:04:41 10° ESE visible
13 Apr 4.9 22:59:50 74° WNW 23:00:19 88° NNE 23:05:22 10° E visible
14 Apr 7.2 22:04:15 22° E 22:04:15 22° E 22:06:01 10° E visible
14 Apr 5.2 23:43:09 21° W 23:46:23 62° SSW 23:51:21 10° ESE visible
15 Apr 5.2 22:47:37 67° SE 22:47:37 67° SE 22:52:06 10° ESE visible
